SES-10

Last updated on Sun Jun 21 2026 00:03:07 GMT+0000 (Coordinated Universal Time)

1 42432U 17017A 26171.37872375 -.00000277 00000+0 00000+0 0 9995 2 42432 0.0216 40.5012 0002727 55.6577 241.8767 1.00272149 33783
UTC large
Height (km)
Speed (km/s)
/
Latitude / Longitude
Inclination (degrees)
Orbital Period (minutes)
Azimuth
Elevation
Range (km)
Doppler Factor

Next 0 passes for location: London (51.5072 / 0.1276)

No passes found over London.
SES-10